Lapse_Rate
7.4 7.9 8.6 7.2 7.3 7.8 8.1 8.0 7.6 7.5 7.3 7.2 7.2 7.1 7.4 7.6 7.2 7.5 7.4 7.2 6.9 7.2 6.9 6.8 7.0 7.0 7.2 7.3 7.3 7.5 7.4 7.4 7.4 7.2 7.2 7.2 7.2 7.1 7.1 7.1 7.1 7.1 7.1 7.0 7.0 7.0 6.9 6.7 6.6
7.9 8.5 8.7 8.3 7.7 8.2 8.6 8.1 8.2 8.1 7.7 7.0 7.1 7.1 7.2 7.1 7.0 7.5 7.3 7.4 7.2 7.4 7.1 7.0 6.9 7.1 7.3 7.4 7.4 7.4 7.4 7.3 7.1 7.1 7.2 7.2 7.1 7.2 7.2 7.1 7.0 7.0 7.0 6.9 6.9 6.9 6.8 6.6 6.6
8.5 7.9 8.4 8.0 8.3 8.3 8.4 8.1 8.1 8.0 7.4 7.1 6.9 7.0 6.6 6.7 7.2 7.5 7.3 7.5 7.1 7.2 7.1 6.9 7.1 7.1 7.1 7.2 7.3 7.3 7.2 7.1 7.1 7.1 7.1 7.2 7.2 7.1 7.1 7.0 6.9 6.9 6.8 6.8 6.8 6.8 6.7 6.7 6.6
8.3 8.4 8.2 8.5 8.3 8.5 8.5 8.3 8.1 7.9 7.6 7.2 6.5 6.2 6.6 7.1 7.0 7.4 7.6 7.4 7.3 7.0 6.8 6.9 6.9 7.0 7.1 7.1 7.0 7.0 7.0 7.0 7.1 7.1 7.1 7.1 7.1 7.0 7.1 7.0 7.0 7.0 7.0 7.0 6.9 6.9 6.8 6.7 6.8
8.2 8.3 8.4 8.5 8.1 8.1 8.3 8.3 8.2 8.3 8.0 7.4 7.0 7.0 7.1 6.5 6.6 7.0 7.2 7.1 6.9 6.8 6.8 6.9 6.9 7.1 7.0 7.0 7.1 7.1 7.1 7.1 7.0 7.0 7.1 7.1 7.1 7.0 6.9 6.9 6.9 6.9 7.0 7.0 7.0 7.0 7.0 6.9 6.9
8.4 8.4 8.6 8.2 8.7 8.5 8.0 7.9 7.9 8.0 8.0 7.9 7.8 8.0 7.8 6.9 6.5 6.7 7.0 7.1 6.7 6.8 7.1 7.1 7.0 6.9 7.0 7.1 7.0 7.0 7.1 7.0 7.0 7.0 7.0 7.0 7.0 6.9 6.9 6.9 6.9 6.9 6.9 7.0 7.0 6.9 6.9 6.8 6.7
8.1 9.0 8.7 8.2 8.0 8.3 7.7 7.7 7.8 8.1 8.0 8.0 8.1 8.3 7.9 7.3 6.9 7.0 7.1 7.0 6.9 7.1 7.0 6.9 6.9 7.0 7.1 7.1 7.1 7.2 7.1 7.0 7.0 7.0 7.0 7.0 7.0 6.9 7.0 7.0 7.0 7.0 7.0 7.0 6.9 6.8 6.7 6.5 6.4
8.5 8.1 8.2 8.4 8.0 7.1 7.7 7.8 8.1 7.8 7.9 8.4 8.3 7.8 7.9 7.5 7.1 7.1 7.0 7.1 7.1 7.0 7.0 6.9 7.0 7.1 7.2 7.2 7.2 7.1 7.1 7.1 7.0 6.9 6.9 6.9 7.0 7.0 7.0 7.0 7.1 7.0 6.9 6.8 6.8 6.7 6.5 6.3 6.2
8.8 8.8 8.4 8.1 8.0 7.7 7.2 7.1 7.7 8.1 8.3 8.2 7.9 7.9 8.0 7.7 7.4 7.4 7.4 7.4 7.2 7.0 6.9 6.9 7.0 7.0 7.2 7.2 7.1 7.1 7.1 7.1 7.1 7.1 7.2 7.2 7.2 7.1 7.1 7.1 7.0 7.0 6.9 6.7 6.6 6.5 6.4 6.3 6.2
8.7 8.6 8.8 8.7 8.2 8.1 8.0 7.5 8.4 8.4 8.2 7.9 8.0 8.2 8.0 7.6 7.4 7.4 7.2 7.1 6.9 6.7 6.8 6.6 6.9 7.1 7.2 7.0 7.1 7.1 7.2 7.0 7.2 7.2 7.1 7.2 7.2 7.1 7.0 7.0 6.9 6.8 6.6 6.5 6.4 6.4 6.4 6.3 6.3
8.4 8.8 8.9 8.7 8.4 8.5 8.0 8.5 8.6 8.4 8.1 7.8 8.0 8.1 8.0 7.7 7.5 7.2 7.0 6.8 6.7 6.3 6.3 6.5 7.0 7.0 6.9 6.9 6.9 7.0 7.0 6.9 6.9 7.3 7.3 7.3 7.1 6.9 7.0 6.7 6.5 6.4 6.4 6.3 6.2 6.2 6.2 6.2 6.1
9.2 9.1 9.0 9.2 8.8 8.8 8.8 8.8 8.7 8.3 8.2 8.0 8.1 8.0 8.1 7.9 7.5 7.2 6.9 7.1 6.8 6.4 6.7 6.9 6.9 7.1 7.2 7.3 7.3 7.1 7.4 7.3 7.2 7.0 7.1 6.9 7.0 6.9 6.5 6.4 6.1 6.1 5.9 5.8 5.8 5.9 5.9 5.9 6.0
9.2 9.2 9.3 9.4 9.0 9.1 9.0 8.7 8.5 8.5 8.3 8.2 8.1 8.1 7.8 7.6 7.5 7.2 6.8 6.8 6.5 6.4 6.6 6.9 6.8 6.8 7.0 6.7 7.3 7.4 7.4 7.3 7.1 7.0 6.8 6.5 6.4 6.2 6.1 6.0 5.9 5.9 5.8 5.8 5.7 5.6 5.6 5.6 5.6
9.1 9.3 9.1 8.7 8.8 8.8 8.6 8.3 8.4 8.5 8.2 8.2 7.9 7.8 7.5 7.4 7.2 7.0 6.9 7.1 7.1 6.9 6.9 7.2 7.2 7.1 7.1 7.2 7.1 7.2 6.9 6.8 6.9 6.6 6.5 6.3 6.3 6.5 6.5 6.1 5.8 5.8 5.9 5.8 5.6 5.5 5.6 5.7 5.6
9.2 9.1 8.7 8.6 8.6 8.6 8.4 8.4 8.5 8.2 8.3 8.2 8.0 7.8 7.4 7.0 6.8 6.7 6.8 7.0 7.0 7.0 6.9 6.8 6.7 6.9 7.0 7.0 7.0 6.9 6.6 6.7 6.7 6.7 6.5 6.6 6.9 6.9 6.8 6.6 6.4 6.2 6.1 5.9 5.7 5.7 5.7 5.6 5.6
8.8 8.5 8.7 8.5 8.5 8.4 8.4 8.4 8.4 8.5 8.3 8.1 7.7 7.6 7.3 6.9 6.9 6.9 6.9 6.9 7.0 6.9 6.6 6.6 6.7 6.7 6.5 6.8 7.0 6.8 7.0 6.8 6.7 6.6 6.7 6.9 6.8 6.7 6.6 6.4 6.4 6.2 5.9 5.9 5.8 5.7 5.7 5.6 5.6
8.9 9.0 8.8 8.6 8.5 8.5 8.6 8.6 8.4 8.4 8.3 8.1 7.6 7.6 7.4 7.2 6.9 6.9 6.9 6.9 6.9 6.8 6.6 6.4 6.6 6.6 6.2 7.1 7.1 7.3 7.1 6.9 6.9 6.9 6.7 6.5 6.5 6.3 6.2 6.0 5.8 5.6 5.4 5.3 5.2 5.4 5.3 5.3 5.4
9.0 8.9 8.7 8.7 9.0 8.6 8.5 8.7 8.5 8.4 8.2 7.9 7.9 7.7 7.5 7.3 7.2 7.1 6.9 6.9 6.8 6.8 6.6 6.6 7.0 6.9 6.9 6.8 7.1 7.1 6.9 6.9 6.9 6.7 6.4 6.2 6.1 6.0 5.9 5.7 5.5 5.2 5.1 5.2 5.2 5.1 5.2 5.3 5.3
8.8 8.9 8.7 8.6 8.8 8.8 8.6 8.3 8.3 8.0 7.9 8.1 8.1 8.1 7.9 7.9 7.8 7.8 7.3 7.0 7.0 6.9 7.1 7.2 6.9 7.4 7.1 7.1 6.8 6.8 6.7 6.8 6.8 6.4 6.0 6.0 5.9 5.7 5.3 5.2 5.1 5.0 5.1 5.1 5.1 5.2 5.3 5.3 5.2
9.0 8.9 8.4 8.5 8.7 8.5 8.1 8.2 8.2 7.9 7.8 7.8 7.8 7.9 8.3 8.5 8.4 8.1 8.0 7.7 7.6 7.7 7.5 7.8 7.4 7.1 6.9 6.7 6.5 6.5 6.5 6.4 6.1 6.0 6.0 5.9 5.8 5.7 5.6 5.4 5.1 5.2 5.4 5.4 5.3 5.4 5.3 5.3 5.3
8.9 9.0 8.9 9.0 8.8 8.7 8.4 8.0 8.0 8.2 8.2 8.2 8.3 8.3 8.3 8.1 8.1 7.8 8.0 8.0 8.0 8.0 7.8 7.5 7.0 6.8 6.5 6.4 6.6 6.5 6.4 6.4 6.3 6.2 5.9 5.8 5.8 5.9 5.9 5.9 5.9 5.8 5.6 5.4 5.3 5.2 5.2 5.3 5.3
8.6 8.6 8.7 8.6 8.6 8.4 8.1 7.0 7.4 8.1 8.1 8.3 8.1 7.9 7.9 7.5 7.3 7.6 6.9 7.4 7.6 7.4 7.1 7.0 7.0 6.9 6.9 6.9 6.7 6.7 6.6 6.6 6.4 6.3 6.3 6.6 6.7 6.5 6.3 5.8 5.5 5.4 5.1 5.0 5.0 5.1 5.1 5.2 5.2
8.2 8.1 8.0 7.9 7.9 7.9 7.8 7.6 6.8 6.9 7.4 7.6 7.7 7.5 7.3 7.3 7.6 7.2 7.1 7.4 7.2 7.2 7.2 6.9 7.1 7.1 7.0 7.1 7.1 7.2 7.1 6.9 6.7 6.6 6.3 6.1 5.9 5.6 5.4 5.3 5.2 5.2 5.3 5.3 5.4 5.4 5.4 5.4 5.4
8.0 7.9 8.0 8.0 7.9 7.4 7.4 7.5 6.6 7.1 7.6 7.6 7.6 7.3 7.3 7.1 7.4 7.3 7.2 7.3 7.4 7.3 7.5 7.2 7.2 7.2 7.2 7.0 6.9 6.7 6.3 6.3 6.2 6.0 5.8 5.5 5.3 5.2 5.2 5.2 5.1 5.0 4.9 5.0 5.2 5.3 5.4 5.4 5.5
7.9 8.0 7.7 6.9 6.1 6.0 7.2 7.2 6.7 6.9 7.0 7.5 7.8 7.9 7.4 7.1 7.2 7.2 7.0 6.5 7.2 7.4 7.2 7.2 6.8 6.5 6.3 6.2 6.3 6.1 5.9 5.7 5.5 5.4 5.3 5.1 5.0 4.9 4.7 4.7 4.8 4.8 4.9 5.0 5.1 5.2 5.5 5.5 5.6
7.8 7.8 7.7 7.0 5.5 6.4 7.1 6.6 6.9 7.1 7.2 7.0 6.8 6.8 6.8 6.8 6.9 6.6 7.3 7.2 7.4 7.5 6.8 6.3 6.2 6.1 5.9 5.9 5.8 5.7 5.6 5.5 5.5 5.3 4.9 4.7 4.7 4.7 4.8 4.5 4.3 4.4 4.8 4.7 4.6 4.9 5.2 5.8 6.2
7.6 7.6 7.4 7.2 6.5 6.6 6.4 6.2 6.5 6.8 6.7 6.5 6.8 6.8 7.1 7.4 7.1 6.9 7.0 7.0 6.7 6.3 6.1 6.0 6.0 6.1 6.0 5.9 5.9 5.8 5.7 5.5 5.1 4.8 4.4 4.4 4.6 4.7 4.4 4.4 4.5 4.4 4.7 4.7 4.7 5.1 6.0 7.1 7.3
7.5 7.3 7.3 7.3 5.7 6.3 6.2 6.2 6.3 6.3 6.5 6.8 6.9 7.1 7.1 7.0 6.9 6.6 6.6 6.3 6.2 6.0 5.9 6.2 6.2 6.1 6.1 6.0 5.8 5.5 5.1 4.8 4.6 4.3 4.2 4.1 4.2 4.0 4.0 4.1 4.4 4.8 5.1 5.8 5.7 7.0 7.4 7.5 7.6
7.3 7.5 7.4 7.0 6.8 5.3 4.4 6.4 6.7 6.7 6.5 6.6 6.7 6.5 6.3 6.3 6.4 6.3 6.1 5.9 6.0 6.1 6.0 6.1 6.2 6.1 6.1 5.7 5.5 5.1 4.8 4.5 4.2 3.9 3.7 3.9 3.9 3.9 4.1 4.4 4.6 5.5 6.2 7.1 7.1 7.5 7.6 7.8 7.6
7.4 7.3 7.3 7.1 6.5 6.5 6.3 6.7 6.7 6.6 6.7 6.7 6.4 6.3 6.2 6.2 6.2 6.1 6.0 5.9 6.1 6.1 6.3 6.3 6.2 5.9 5.6 5.4 5.1 4.9 4.7 4.2 3.9 3.8 3.8 3.9 4.0 4.3 4.4 4.5 5.0 5.9 7.0 7.2 7.5 7.5 7.5 7.7 7.2
Wind_Speed
6 2 2 4 1 4 3 5 2 1 4 5 4 4 7 4 2 2 2 6 14 10 13 15 19 18 19 19 19 18 18 18 17 15 14 13 12 13 12 13 13 13 12 11 12 11 11 11 12
4 3 3 2 3 2 3 4 7 7 11 10 9 5 9 5 4 11 7 11 13 13 14 15 19 19 18 18 18 17 17 17 16 14 13 13 13 12 12 12 11 11 11 11 12 12 12 11 11
5 2 4 3 2 4 3 1 8 13 12 7 5 5 4 2 9 7 9 12 13 9 14 17 20 19 18 17 16 16 15 15 15 14 13 13 12 12 10 10 9 9 10 10 10 10 10 11 12
3 4 4 4 6 7 4 2 11 8 5 7 14 5 4 2 2 7 12 16 13 10 14 20 20 19 18 16 16 15 15 15 14 13 13 12 11 10 9 8 7 6 8 9 8 9 10 10 11
2 3 3 1 3 4 4 4 9 5 6 9 7 6 3 2 13 14 16 13 15 12 14 17 20 19 17 17 15 15 15 14 13 13 13 11 10 8 7 6 5 5 7 6 6 7 8 9 10
3 2 4 3 5 6 5 9 4 4 6 12 10 7 3 5 13 10 11 11 13 11 13 15 18 18 17 16 15 15 14 13 13 13 12 10 9 7 6 5 4 5 4 5 7 8 8 9 10
4 3 3 4 2 6 4 4 2 11 6 5 10 5 4 3 7 10 9 8 9 11 12 13 15 17 17 17 16 15 15 15 14 12 11 10 9 7 5 3 2 3 3 4 6 7 8 10 10
4 3 2 3 8 4 5 3 4 4 2 8 10 7 7 6 9 9 8 8 7 6 10 11 13 16 16 17 17 17 15 13 11 10 9 7 5 4 3 2 1 2 3 5 6 8 10 12 13
2 4 2 3 14 10 8 6 2 2 8 1 1 6 13 16 12 9 6 4 4 3 4 8 11 15 16 15 15 14 12 11 11 10 8 6 4 4 4 6 5 4 6 8 10 10 11 13 14
3 4 8 7 7 9 5 9 9 5 2 5 7 10 17 15 15 14 11 10 8 7 6 6 10 10 13 9 11 10 10 9 8 7 6 7 7 7 7 7 8 8 10 11 12 12 12 11 12
5 3 2 3 5 10 9 5 3 12 2 7 15 16 16 16 12 14 11 15 17 10 6 8 7 9 11 10 14 11 10 9 7 6 6 8 7 8 6 6 7 6 8 9 10 11 10 11 12
3 3 5 3 6 7 8 8 7 1 9 12 21 21 16 14 13 13 12 11 9 9 11 9 9 10 13 11 11 12 10 11 8 8 7 6 4 2 4 3 4 5 7 7 8 9 11 12 13
5 5 3 6 8 5 6 5 7 4 8 10 14 17 18 15 12 12 13 11 8 9 10 8 8 8 9 7 9 8 9 10 10 7 8 8 6 4 4 2 5 7 8 9 9 9 10 11 13
6 3 4 4 5 2 6 3 2 4 8 12 18 16 14 15 16 11 8 11 11 11 12 8 8 7 10 5 6 7 8 10 9 7 6 3 1 3 3 5 7 9 11 10 9 7 7 6 8
6 6 5 3 1 3 5 3 4 6 11 17 17 16 12 14 8 8 7 8 13 12 13 8 7 10 8 6 5 3 4 4 2 4 2 4 8 8 8 8 8 11 13 13 13 10 9 5 7
4 5 3 3 4 4 5 7 2 9 14 15 13 9 4 6 5 3 3 8 10 10 8 5 4 4 6 7 8 8 7 9 9 9 15 19 17 15 14 10 10 14 14 12 8 4 4 4 4
7 2 2 3 3 2 3 4 3 9 13 12 5 7 7 7 9 7 7 5 6 7 8 7 8 6 6 9 12 14 15 14 15 17 17 19 20 20 16 11 11 13 12 9 5 5 3 4 7
4 1 2 5 5 4 1 9 2 8 6 7 7 8 8 9 7 6 10 11 12 11 11 8 4 6 2 8 9 12 13 14 16 14 15 17 18 20 16 14 14 15 8 7 7 5 3 3 4
2 2 3 3 1 5 3 6 8 3 9 9 8 11 10 11 4 7 11 14 15 11 10 7 8 6 4 5 3 5 4 4 5 12 17 19 17 16 15 10 10 11 5 5 5 4 5 3 6
5 6 3 1 5 6 6 8 11 8 5 6 12 12 11 8 9 10 12 11 10 8 7 8 9 8 5 3 3 3 4 4 5 9 14 15 15 13 11 9 6 8 4 7 6 5 3 2 4
4 4 3 3 4 6 5 5 7 6 10 10 8 8 8 11 11 8 10 7 5 7 7 7 7 7 5 7 4 4 6 4 3 3 3 6 10 12 13 11 8 6 4 3 4 5 6 3 3
2 1 3 3 4 3 3 2 4 4 7 7 6 6 8 9 9 9 7 5 7 6 6 6 6 6 4 5 5 5 4 3 2 3 1 3 7 9 9 7 5 4 3 3 2 3 3 4 3
3 2 3 3 3 3 4 5 2 5 2 4 5 5 7 8 11 9 8 8 6 5 5 4 6 6 4 5 5 5 5 4 3 2 2 2 3 5 4 4 3 4 2 2 2 2 1 1 2
1 4 6 4 3 3 3 4 4 6 6 6 4 4 5 6 6 5 4 5 7 5 6 7 7 5 5 6 6 7 8 6 3 2 2 2 2 2 0 1 4 4 4 4 3 3 3 3 3
5 5 2 3 3 4 5 3 5 5 5 6 7 7 7 6 5 4 5 5 5 7 7 5 5 5 5 6 6 6 7 6 6 5 3 4 3 3 4 3 5 5 6 6 6 4 4 4 3
3 4 4 5 3 3 5 2 4 1 10 11 8 9 6 6 5 3 5 6 6 7 6 5 5 4 4 5 5 4 6 4 4 5 4 4 4 4 7 7 9 9 9 9 6 3 4 4 4
1 3 3 6 3 3 2 2 6 2 11 10 12 9 7 6 7 7 6 6 7 6 4 3 4 5 5 5 5 6 6 6 6 7 5 4 5 4 8 8 7 8 8 7 6 4 5 4 4
4 4 3 4 2 1 3 3 4 8 7 8 5 8 7 7 7 7 6 6 4 3 3 4 4 4 3 5 5 4 6 6 6 4 7 7 6 7 6 4 5 6 6 5 4 4 4 4 3
4 2 6 5 3 4 1 5 5 10 8 8 6 7 10 9 7 6 5 4 3 3 3 2 4 5 5 5 4 5 6 6 6 6 6 7 4 4 3 3 4 7 5 4 3 3 2 2 2
1 3 4 4 2 1 3 5 3 6 9 10 11 8 6 7 6 5 4 5 4 3 3 3 1 3 5 4 4 6 6 5 6 6 7 4 3 4 5 1 3 9 6 5 5 4 2 1 3
Wind_Direction
298 294 101 43 50 68 239 244 126 214 36 332 57 96 105 41 13 148 94 138 127 134 142 130 122 119 115 114 116 115 114 111 108 106 104 102 94 88 81 76 71 69 67 60 62 58 54 44 33
270 210 58 70 100 276 262 222 149 128 132 92 68 57 29 65 53 104 111 134 127 133 131 126 124 120 120 119 117 118 119 119 116 111 105 97 91 85 83 79 77 73 69 62 55 49 45 38 33
254 299 90 104 125 215 262 29 130 137 140 64 100 34 47 18 112 127 134 133 123 123 125 128 124 121 119 120 122 123 124 121 121 118 112 107 103 98 95 89 82 76 66 59 53 47 35 26 24
243 12 45 109 241 259 234 150 137 126 95 75 111 45 77 95 167 131 135 132 137 122 119 129 126 123 123 125 133 134 129 128 124 119 116 116 114 113 110 102 91 83 74 60 42 36 29 15 17
13 47 94 151 244 261 116 106 141 105 100 143 133 146 94 21 112 122 138 140 137 130 123 130 134 132 134 139 139 137 134 131 126 125 126 127 125 129 121 114 98 70 59 51 30 31 20 13 8
41 116 73 55 335 341 43 81 311 78 101 102 90 87 31 128 121 130 130 136 137 128 134 138 140 142 142 143 146 144 139 139 140 136 138 138 143 144 134 119 99 71 47 30 12 17 14 12 6
117 106 164 200 193 16 346 86 237 121 133 109 137 99 128 197 145 134 133 130 131 132 133 151 152 148 151 151 153 151 152 153 148 148 152 156 156 158 136 110 69 57 17 1 349 353 358 358 349
108 83 173 210 129 355 301 70 182 158 149 131 141 155 177 189 150 129 136 131 125 143 157 157 155 157 160 161 164 162 159 153 151 156 165 161 174 164 168 218 237 289 310 315 322 334 343 341 337
106 49 266 217 140 178 159 185 233 349 130 12 338 125 147 145 137 132 118 89 98 168 173 174 166 173 173 170 173 163 162 159 163 172 180 184 200 213 233 246 273 290 296 304 314 326 327 325 324
128 163 214 191 166 170 152 161 150 99 88 24 67 73 128 146 151 145 156 158 171 184 196 206 195 178 169 164 177 172 166 174 175 180 191 214 230 243 245 263 292 308 314 314 311 318 323 323 326
194 228 240 265 206 129 156 163 102 127 337 182 145 146 154 157 158 154 167 176 183 182 188 199 198 185 175 175 178 183 182 178 194 199 203 230 239 260 261 291 320 334 349 353 348 353 358 342 336
220 260 240 95 126 121 167 149 120 135 193 164 153 159 157 167 167 169 175 187 177 177 196 197 194 181 198 182 184 182 180 196 200 207 216 198 175 105 65 29 13 22 9 16 18 8 355 353 356
143 204 37 104 90 96 129 122 151 168 132 144 140 161 172 171 173 184 181 188 163 185 200 192 185 200 200 207 187 188 191 199 207 207 195 185 167 152 162 101 48 36 25 22 12 15 12 10 3
150 124 107 79 115 103 112 89 66 38 131 143 156 175 177 181 187 187 161 185 172 181 193 171 186 181 169 162 168 195 199 206 200 188 204 219 146 122 103 56 37 26 22 20 21 21 11 0 2
117 80 44 355 56 117 110 27 172 145 159 160 179 183 185 200 193 205 187 183 175 186 184 166 158 177 149 128 114 124 110 146 157 128 90 60 49 51 53 44 29 19 12 11 10 6 7 7 1
77 57 110 270 146 352 81 250 217 161 155 181 185 191 176 47 52 38 188 178 186 172 160 104 103 42 34 73 62 72 76 68 58 64 65 65 62 61 57 50 29 23 28 20 6 4 350 357 354
17 174 152 331 213 89 103 253 246 174 184 177 110 80 84 71 41 31 49 72 133 123 101 70 46 60 9 54 70 65 67 67 64 69 65 65 62 61 61 49 29 22 21 18 15 346 23 335 335
228 201 200 209 235 80 335 264 283 171 113 119 100 93 86 78 43 53 74 79 79 69 60 73 87 79 66 79 62 70 68 63 58 60 61 65 60 53 51 38 30 21 12 2 355 342 331 300 323
158 119 143 235 40 94 228 23 1 37 95 106 106 107 102 91 68 58 74 87 89 77 84 66 81 78 66 62 57 57 62 56 57 62 61 60 58 54 49 41 31 23 24 348 344 326 334 337 346
78 131 93 128 34 97 80 34 27 36 89 115 124 115 111 100 79 73 75 70 77 97 99 99 90 89 88 98 110 98 94 71 85 76 66 70 69 63 65 63 48 40 27 15 11 18 337 325 30
37 83 36 119 28 44 103 33 24 21 80 93 77 99 105 113 107 87 84 86 106 119 128 119 124 123 109 103 92 82 89 95 54 21 48 59 72 75 74 66 59 44 40 12 3 14 21 332 351
58 321 51 53 67 178 62 214 37 9 50 72 103 113 120 124 123 136 147 144 144 160 144 132 125 122 123 142 127 150 166 142 153 165 179 94 76 86 71 70 59 52 56 49 18 41 43 29 345
188 148 165 140 105 81 12 85 235 104 93 155 154 154 151 157 162 162 165 163 148 133 132 141 118 97 98 108 122 118 96 106 141 130 102 103 89 109 90 80 111 116 113 141 132 135 134 227 269
109 92 44 50 86 52 329 123 231 195 187 176 174 182 171 180 178 149 133 118 100 91 83 80 101 103 119 117 118 125 133 137 135 201 209 211 225 220 177 115 156 166 192 204 208 214 242 265 258
71 72 7 14 13 207 328 71 220 235 179 168 159 177 197 204 177 154 165 118 110 92 88 89 116 132 128 116 121 138 148 163 187 208 213 208 222 228 232 213 195 208 223 228 230 242 268 272 262
48 134 149 183 183 232 346 346 280 216 126 139 170 183 170 135 138 142 102 100 96 97 107 141 156 133 123 121 131 151 179 197 213 219 217 228 222 223 223 225 220 229 229 240 252 258 271 269 273
164 50 154 106 13 68 264 22 19 22 127 152 179 175 148 124 111 111 101 93 89 91 98 129 139 124 146 165 177 203 212 220 227 233 230 229 226 230 232 228 228 243 244 238 253 257 269 280 274
126 143 60 10 117 181 288 223 216 211 209 197 146 133 126 117 117 108 96 92 83 74 19 33 108 138 181 205 218 234 242 245 255 249 244 230 236 241 237 261 274 260 254 252 245 259 270 279 299
4 40 58 106 108 152 187 261 213 195 184 175 155 141 139 143 134 122 116 94 92 80 35 123 158 193 228 240 260 288 307 300 289 266 255 248 265 343 309 307 323 298 283 258 237 244 228 181 288
173 125 114 106 201 61 145 274 355 194 162 158 166 160 130 111 117 98 69 47 35 18 342 158 281 299 282 291 318 310 320 332 307 288 287 340 278 224 216 144 320 279 258 251 247 239 202 282 316